Overview Statistics Trail Chart Weather Telemetry Raw packets
 

This is the latest recevied weather packets stored in our database for station/object KB4MOX. If no packets are shown the sender has not sent any weather packets the latest 10 day(s).

<< 83 84 85 86 87 88 89 >>
Time Temp. Humidity Pressure Rain* Wind** Luminosity Snow
1788010090 23.33° C 89% 1021.3 hPa 0 mm - 78 W/m² -
1788009785 23.33° C 90% 1021.2 hPa 0 mm - 69 W/m² -
1788009483 23.33° C 92% 1021.1 hPa 0 mm - 64 W/m² -
1788009178 22.78° C 93% 1021.2 hPa 0 mm - 65 W/m² -
1788008873 22.78° C 93% 1021.2 hPa 0 mm - 66 W/m² -
1788008568 22.78° C 94% 1021.2 hPa 0 mm - 67 W/m² -
1788008266 22.78° C 95% 1021.1 hPa 0 mm - 72 W/m² -
1788007964 22.22° C 96% 1021.2 hPa 0 mm - 74 W/m² -
1788007663 22.22° C 97% 1021.2 hPa 0 mm - 74 W/m² -
1788007358 22.22° C 97% 1021.1 hPa 0 mm - 71 W/m² -
1788007053 22.22° C 97% 1021.1 hPa 0 mm - 77 W/m² -
1788006751 22.22° C 97% 1021.1 hPa 0 mm - 74 W/m² -
1788006447 21.67° C 98% 1021.2 hPa 0 mm - 77 W/m² -
1788006147 21.67° C 98% 1021.1 hPa 0 mm - 88 W/m² -
1788005846 21.67° C 97% 1021.1 hPa 0 mm - 79 W/m² -
1788005541 21.11° C 97% 1021.1 hPa 0 mm - 83 W/m² -
1788005240 21.11° C 97% 1020.9 hPa 0 mm - 71 W/m² -
1788004939 21.11° C 97% 1021.1 hPa 0 mm - 54 W/m² -
1788004638 21.11° C 97% 1021 hPa 0 mm - 45 W/m² -
1788004345 21.11° C 97% 1021.1 hPa 0 mm - 40 W/m² -
1788004032 21.11° C 97% 1020.9 hPa 0 mm - 38 W/m² -
1788003731 21.11° C 97% 1020.9 hPa 0 mm - 30 W/m² -
1788003427 21.11° C 97% 1020.9 hPa 0 mm - 23 W/m² -
1788003127 21.11° C 97% 1020.8 hPa 0 mm - 15 W/m² -
1788002826 21.11° C 97% 1020.8 hPa 0 mm - 11 W/m² -

* Rain latest hour (hover to see other rain measurements)
** Current wind speed in m/s (hover to see current wind gust speed)